GFSGL_700_rhum_021.txt.gz
RH
81 94 100 98 74 61 46 34 23 20 17 12 7 6 6 8 12 15 80 87 87 95 99 97 93 100 100 100 100 100 100 97 92 60 81 44 64 73 72 68 66 58 47
87 100 100 80 68 56 41 28 20 18 14 8 6 6 8 30 19 20 49 84 79 91 96 97 100 100 98 99 100 100 98 94 96 56 20 49 70 72 67 66 68 89 72
93 100 90 78 70 49 29 20 18 16 12 7 7 8 11 14 20 46 70 63 83 84 100 100 98 93 93 44 24 30 32 32 28 25 37 72 72 73 73 85 100 91 95
99 97 87 78 58 34 20 20 17 15 8 7 8 11 28 33 89 66 62 70 83 99 99 100 95 85 29 25 29 33 33 28 28 56 79 77 80 62 100 100 97 100 100
100 93 89 71 49 21 21 18 17 12 7 8 11 15 32 84 94 81 68 87 97 99 92 79 48 29 26 27 36 31 27 30 55 84 82 64 27 61 100 98 97 99 94
100 96 84 54 22 28 21 17 14 8 8 11 14 16 25 63 74 73 65 42 34 27 33 32 33 31 30 36 29 25 28 56 84 81 55 35 57 98 100 100 99 96 88
100 96 81 45 51 31 17 16 8 9 13 17 19 20 26 50 54 59 43 25 21 24 28 33 31 39 40 32 32 31 50 82 83 74 49 41 89 100 100 97 100 100 99
97 96 77 43 26 17 16 9 10 14 18 18 22 23 32 42 59 59 37 19 18 22 31 30 34 38 33 34 33 39 70 88 89 82 41 57 97 97 95 96 94 92 92
99 86 52 36 38 16 9 10 14 17 19 22 29 33 52 66 67 54 26 16 17 26 28 33 32 33 34 38 39 56 77 85 84 52 43 87 88 89 89 89 89 93 94
98 95 94 70 51 10 9 14 17 19 21 26 33 46 66 84 71 43 22 18 22 25 34 35 26 28 36 39 46 62 78 85 83 42 76 87 88 88 89 97 98 100 100
95 96 89 54 26 11 14 19 18 20 25 30 35 51 64 73 66 29 20 19 23 30 33 28 29 33 42 43 52 62 79 85 83 43 86 89 92 90 100 100 100 100 100
94 92 62 25 11 13 19 19 20 29 32 34 44 62 80 72 35 22 20 22 26 31 29 25 30 33 37 40 52 60 72 89 86 46 89 90 93 92 96 100 100 100 100
94 58 33 15 14 22 26 22 26 37 37 40 58 70 82 73 53 33 22 23 30 33 23 26 30 30 31 35 37 51 67 79 91 47 90 93 95 96 96 100 100 100 100
60 38 20 15 22 27 28 24 30 38 41 43 69 76 84 82 51 37 23 22 32 31 21 25 27 29 29 29 29 36 55 72 88 74 63 97 94 95 95 100 99 100 98
38 31 19 20 30 37 36 30 30 42 45 49 67 86 75 44 46 37 27 28 33 28 22 24 25 24 26 30 31 31 40 61 76 92 58 74 96 93 96 97 100 100 100
40 24 23 25 36 39 35 37 35 39 46 51 71 95 84 49 51 29 24 27 35 31 22 24 24 24 25 28 30 30 29 39 62 77 94 62 63 97 96 96 96 97 95
25 25 27 33 36 38 38 45 45 42 44 48 58 82 88 60 55 22 22 25 33 32 22 22 23 24 27 28 29 28 21 23 36 60 76 93 75 42 97 98 98 97 98
29 32 35 42 41 36 39 47 58 57 52 52 63 76 89 70 54 23 20 23 30 32 28 21 23 25 28 31 33 34 24 16 18 32 60 77 91 93 35 76 98 99 99
33 38 50 56 52 44 42 47 59 66 60 57 61 77 87 76 59 29 19 21 28 30 31 29 22 24 27 31 35 37 34 18 15 17 35 63 78 88 97 46 38 94 100
40 42 46 55 64 58 55 51 55 59 70 66 60 71 99 82 66 58 34 22 24 29 31 33 34 27 26 28 32 36 37 24 18 18 19 42 67 78 86 98 69 28 40
46 53 74 83 83 83 81 74 59 63 73 74 64 71 98 96 75 75 81 64 37 28 31 33 34 37 36 33 34 39 39 36 20 20 21 26 52 71 76 84 96 90 36
48 61 78 82 82 84 84 84 78 66 77 78 67 76 97 100 92 86 94 97 96 78 44 36 36 38 40 44 44 44 45 41 28 20 22 26 38 62 71 76 83 94 98
37 47 62 70 62 49 52 66 82 82 87 78 78 87 100 100 100 100 100 100 100 99 100 94 71 47 44 44 48 51 53 52 42 22 20 23 29 50 67 71 75 81 89
47 60 73 77 66 54 56 91 100 100 100 81 84 99 100 100 100 100 100 100 100 100 100 100 100 99 88 53 49 53 56 62 56 40 21 20 27 37 57 69 72 75 80
98 94 86 79 100 92 94 100 100 100 100 92 69 61 60 65 67 67 57 52 61 85 98 100 100 100 100 96 79 56 56 65 71 59 35 21 20 32 42 58 68 71 73
96 100 97 99 100 100 97 100 100 100 100 100 93 92 97 48 32 30 30 30 29 30 33 51 91 100 100 100 98 92 65 63 74 79 60 33 22 23 30 42 53 64 71

GFSGL_700_rhum_024.txt.gz
RH
73 78 83 89 96 98 99 79 63 45 36 32 27 15 8 6 5 8 11 16 21 47 94 94 99 99 93 84 84 91 95 77 30 21 21 27 27 23 28 53 63 57 52
73 83 92 99 99 99 93 74 59 42 33 31 18 9 6 7 9 13 17 32 27 27 56 76 100 100 81 94 92 83 39 24 30 25 25 27 23 28 56 70 66 51 45
79 90 100 100 100 98 90 67 40 27 31 19 11 8 7 10 14 12 39 68 57 57 72 79 86 99 100 85 58 24 21 22 30 31 24 22 33 69 73 65 43 40 74
87 100 100 100 99 94 69 48 27 31 20 16 8 8 10 13 15 21 74 89 66 68 81 88 82 80 49 25 22 21 24 33 27 25 26 38 72 70 45 30 39 75 82
97 100 100 99 100 94 73 80 85 25 17 9 8 10 12 15 16 29 61 89 63 53 39 32 35 23 24 20 22 25 28 26 25 29 48 74 74 58 37 60 84 87 78
100 100 100 100 92 81 96 62 22 54 20 10 13 14 16 24 24 29 52 58 54 43 27 18 20 26 24 19 29 24 23 28 37 64 78 79 72 40 44 86 90 88 79
99 100 98 95 98 93 87 36 83 40 18 16 18 17 18 21 25 36 58 63 55 34 16 16 22 27 25 33 30 33 39 46 68 82 81 76 44 45 94 88 83 86 87
100 98 99 98 96 95 82 92 52 47 16 17 19 22 24 32 33 46 66 65 49 22 14 20 24 29 28 26 27 31 39 49 75 86 83 62 48 90 91 86 85 76 75
99 100 98 94 96 97 96 86 50 29 18 19 22 24 36 34 40 56 74 66 35 17 17 24 28 28 26 28 31 34 37 50 72 86 84 49 80 88 92 88 96 89 83
99 97 96 96 95 93 84 61 46 24 20 20 24 36 41 40 50 63 78 53 23 17 22 29 29 21 26 29 31 34 35 46 64 79 70 61 84 83 84 100 100 91 95
97 96 96 94 91 89 70 50 32 23 21 19 24 36 39 47 53 72 60 31 22 18 23 33 25 22 26 28 29 31 34 43 59 80 60 72 84 84 89 94 97 100 100
98 96 94 94 88 69 49 26 25 28 24 25 30 36 38 54 67 67 55 38 27 22 28 32 22 25 26 26 27 28 33 42 59 76 66 70 85 89 94 94 86 98 100
94 94 91 86 70 48 23 20 27 32 27 28 37 39 44 72 79 63 52 46 32 26 30 30 22 24 23 22 24 25 27 30 41 68 85 56 87 88 91 90 94 89 94
91 79 71 55 38 21 20 24 23 28 33 34 37 45 52 76 100 81 48 50 33 25 33 30 21 20 19 19 20 22 23 25 29 49 75 76 63 92 91 89 88 90 100
55 51 44 27 24 23 21 22 26 28 34 42 44 52 58 77 100 100 54 51 30 21 27 30 20 20 18 19 21 22 20 18 20 29 56 80 74 65 96 92 89 98 97
43 27 24 27 29 28 28 30 32 31 31 47 55 56 60 72 94 100 59 54 27 24 26 30 22 20 20 20 20 22 22 18 15 16 31 60 83 79 59 97 91 90 93
20 25 29 32 31 35 40 46 38 39 42 45 59 61 61 68 92 99 69 56 23 22 27 31 29 21 21 22 24 24 24 23 18 16 16 34 63 86 91 42 92 92 95
26 32 34 36 40 43 48 52 60 57 52 49 56 68 67 70 87 100 77 57 25 21 26 30 30 29 22 23 25 27 30 31 23 19 18 18 42 68 85 95 38 80 96
35 35 35 29 29 43 46 49 58 70 76 68 56 62 74 72 76 97 79 64 42 25 23 27 30 31 31 27 26 28 31 35 33 20 20 19 26 53 71 84 97 42 43
28 29 31 31 33 47 55 61 67 66 65 83 78 68 80 78 70 98 98 73 72 60 34 26 29 30 32 34 35 33 33 37 36 27 19 21 24 36 59 71 83 98 53
27 28 31 32 39 56 59 67 71 60 62 58 68 79 87 90 100 96 100 94 83 94 96 82 49 34 34 37 38 42 42 44 48 44 25 20 22 28 49 62 70 81 97
34 33 32 33 38 48 55 61 60 58 54 70 92 99 99 92 97 100 99 99 95 93 98 99 97 95 85 57 42 42 45 48 51 54 43 22 20 25 37 56 65 70 80
20 24 30 39 78 96 87 81 67 79 76 100 100 100 100 98 100 100 100 100 99 99 100 100 99 99 100 96 91 62 47 47 50 59 58 41 20 21 30 46 61 66 72
14 25 41 73 100 100 99 97 68 87 92 100 100 100 100 100 100 100 100 100 100 100 100 100 100 100 100 100 98 100 95 60 53 56 66 62 37 20 24 33 50 59 64
11 13 23 45 98 100 100 98 76 99 96 100 100 100 100 100 99 90 94 99 90 72 61 50 54 77 98 100 100 100 100 97 82 59 65 75 63 32 20 25 34 43 51
14 20 59 92 79 74 92 100 100 100 100 92 88 99 100 100 100 100 99 95 50 39 36 33 30 31 34 49 98 100 100 100 100 86 70 74 81 60 31 22 24 29 35

GFSGL_700_rhum_027.txt.gz
RH
62 68 76 83 92 99 99 99 99 99 96 56 32 33 29 15 8 7 7 10 14 29 36 31 28 46 73 100 93 92 94 100 95 60 21 16 18 24 24 21 19 24 48
67 73 83 91 98 100 100 99 100 99 71 42 38 69 16 9 7 6 8 10 32 60 66 52 44 57 63 71 80 79 95 94 34 22 16 22 22 20 19 21 36 63 58
78 82 93 100 100 99 98 98 97 93 75 56 55 35 17 9 9 9 8 10 30 68 87 72 58 70 77 54 37 34 27 25 23 27 23 20 20 23 34 58 65 56 38
82 82 100 100 100 99 98 98 97 94 93 27 59 63 43 30 13 14 16 21 29 41 60 55 49 43 30 18 12 16 21 29 30 24 21 22 27 51 70 69 59 38 43
75 73 98 99 99 98 96 94 92 90 83 65 87 84 57 17 14 17 21 25 37 52 54 52 48 29 14 11 15 23 28 26 24 27 27 34 60 72 70 52 39 59 62
68 92 100 98 98 98 99 97 96 92 74 91 89 76 36 25 18 24 28 36 48 59 60 54 32 15 12 16 23 26 21 24 27 33 35 55 67 72 51 46 70 66 55
100 100 98 98 98 98 98 96 96 93 94 94 79 55 60 29 20 24 37 51 59 63 67 45 21 14 17 27 27 22 30 40 44 49 45 68 75 68 52 72 79 75 72
100 100 100 100 98 100 99 96 93 94 93 86 78 47 24 18 26 33 48 62 70 72 62 31 18 15 25 26 20 26 31 39 44 50 57 75 80 55 81 79 80 70 76
100 100 99 99 100 97 96 94 94 90 84 49 31 22 20 24 32 42 56 71 76 74 43 25 17 19 28 19 23 24 26 32 40 50 63 82 63 73 86 78 73 71 78
100 100 99 99 98 96 94 92 83 70 54 37 24 24 24 31 40 52 69 75 79 54 36 26 19 28 22 21 23 24 24 26 32 44 60 80 61 85 86 80 75 75 83
99 100 97 96 95 94 88 79 67 47 20 24 28 25 25 34 42 51 66 69 66 49 41 25 20 31 20 20 20 21 23 24 27 35 52 75 60 85 85 85 83 80 82
98 96 96 95 94 80 52 53 29 20 24 26 27 29 30 36 42 47 53 76 70 51 47 26 27 30 19 20 20 21 23 23 25 28 41 71 64 79 90 88 91 87 88
93 91 92 75 42 49 46 24 22 21 25 28 26 27 37 40 44 49 53 79 83 57 51 30 30 31 20 21 19 19 19 18 17 20 26 49 76 60 88 85 86 83 90
94 81 38 41 48 34 25 26 23 22 23 29 30 30 40 47 47 54 62 80 91 79 55 31 29 32 20 19 18 17 17 17 16 16 16 27 54 80 62 87 80 82 86
42 41 43 34 22 24 28 27 27 29 32 35 42 42 42 52 60 78 75 87 93 90 65 32 26 32 21 19 20 18 18 19 17 17 17 16 35 63 80 62 90 84 84
29 23 19 20 24 28 30 30 38 34 34 43 48 51 50 52 66 68 72 89 97 87 68 29 23 30 29 21 22 22 23 23 20 18 19 18 19 42 70 83 53 92 93
19 22 25 28 32 33 32 30 25 28 37 54 67 67 67 58 62 76 83 97 100 90 66 25 23 29 31 28 23 22 24 25 25 24 19 19 18 27 56 76 86 47 95
24 26 26 26 26 27 28 29 30 29 28 26 38 54 73 80 68 81 83 91 96 93 65 29 22 27 30 30 31 26 25 26 30 33 25 19 20 22 40 63 82 90 38
28 28 28 29 30 31 33 40 48 42 42 33 29 32 47 78 84 83 90 98 100 96 74 57 31 25 28 30 31 34 34 33 35 41 40 21 19 21 28 48 66 84 89
30 30 30 29 30 69 100 100 100 83 66 51 42 43 46 66 72 85 93 100 99 100 93 84 84 54 34 31 31 32 37 41 43 46 49 36 19 20 22 37 56 71 92
22 18 16 16 19 24 43 93 85 88 92 74 55 53 55 90 100 100 96 98 99 99 99 97 97 97 95 88 72 50 40 42 46 49 54 52 30 19 22 26 51 62 74
13 10 8 7 8 11 25 60 74 100 99 93 70 65 79 100 100 100 100 98 99 99 99 99 97 99 100 100 99 98 94 57 48 50 54 60 54 25 19 23 42 57 65
8 7 7 9 11 12 16 23 60 100 98 97 85 84 78 90 98 98 98 100 100 98 100 100 96 98 100 98 98 99 98 100 80 54 54 58 66 50 20 19 28 50 57
8 10 11 12 14 18 22 18 86 100 100 100 95 99 79 79 98 100 97 98 100 100 100 100 99 99 100 100 100 99 100 99 100 100 91 58 65 71 42 19 21 30 47
12 11 11 14 17 48 44 79 86 100 100 100 100 100 100 92 89 98 100 100 99 99 100 100 100 99 84 73 83 94 100 100 98 95 100 95 65 73 72 36 19 22 28
11 11 15 16 18 24 46 100 100 100 100 100 100 100 100 99 89 83 89 97 100 100 100 100 97 60 45 41 39 42 52 97 100 99 100 100 90 74 80 68 33 23 24

GFSGL_700_rhum_030.txt.gz
RH
62 70 72 80 93 99 99 99 94 99 99 99 98 98 96 67 72 44 35 19 30 17 13 20 39 48 47 34 49 66 78 85 93 76 55 32 15 14 18 21 17 15 15
77 70 74 88 94 97 100 99 88 91 100 96 97 93 86 50 59 86 82 56 20 18 20 31 47 51 43 48 49 58 55 45 31 22 14 16 18 21 17 15 19 24 39
79 76 75 94 99 97 95 90 95 92 87 95 93 91 87 86 88 88 70 46 54 21 26 44 38 49 54 49 40 27 18 20 24 20 18 24 18 20 24 35 53 65 68
76 71 78 100 99 96 92 97 91 91 88 91 98 96 90 82 87 64 76 34 24 29 31 32 41 54 56 44 24 15 16 20 24 26 19 19 24 30 48 62 64 62 46
75 82 92 100 100 99 100 100 99 94 90 98 96 93 91 83 78 77 33 25 33 39 38 44 59 62 54 29 16 17 20 26 20 18 21 22 26 35 62 69 64 48 59
85 99 100 100 99 99 99 99 100 100 100 97 95 94 83 80 57 30 25 30 32 37 48 59 69 68 40 21 18 21 26 17 19 19 21 25 28 45 67 67 53 65 53
94 95 98 99 98 100 100 100 100 99 96 96 96 86 64 52 28 22 20 29 36 44 55 61 69 52 29 19 20 27 19 22 23 25 26 31 32 54 70 58 73 69 69
92 97 99 100 96 99 100 99 97 95 93 94 88 50 52 38 24 22 24 33 36 43 55 68 66 41 28 18 26 20 21 23 24 26 30 32 40 65 66 66 73 68 69
84 100 100 100 100 100 100 96 94 95 95 77 43 40 24 20 22 22 26 34 38 49 65 69 49 41 26 20 25 18 18 18 21 25 28 37 47 72 63 78 78 73 64
93 98 99 98 97 96 93 97 96 90 50 44 25 15 14 19 25 26 30 38 46 57 73 67 51 45 24 25 22 16 15 17 18 22 27 39 57 77 67 86 81 77 78
99 99 100 99 96 97 96 89 47 47 40 19 15 15 16 18 22 29 35 41 49 55 76 72 53 45 23 27 20 16 15 14 16 17 18 22 38 73 67 85 89 81 71
100 98 97 97 91 86 67 42 42 28 18 18 18 18 20 21 22 26 38 42 53 57 78 93 72 52 27 28 21 16 15 15 16 15 15 16 23 49 73 70 88 85 92
100 95 86 84 90 69 37 28 20 20 21 22 22 21 20 25 28 33 40 51 59 62 84 97 96 63 31 27 25 18 17 19 18 16 16 16 16 26 54 70 80 85 90
74 81 90 76 37 25 20 18 20 23 24 24 25 24 24 26 36 44 44 58 65 80 85 84 95 82 36 28 29 20 18 20 20 20 16 17 17 18 35 71 66 86 89
71 51 31 20 18 18 20 24 26 28 29 31 30 28 28 28 38 49 55 56 79 100 90 86 95 85 35 28 32 22 19 22 22 25 20 17 18 18 27 50 80 62 81
21 20 20 21 24 25 25 25 30 30 31 39 43 43 36 36 38 51 68 65 72 91 88 76 94 78 33 27 33 26 21 24 25 27 27 20 18 20 22 42 63 84 57
24 24 25 25 26 26 26 27 26 28 33 42 60 55 54 43 39 43 57 84 80 96 83 80 100 76 29 24 30 32 28 26 26 27 31 30 20 19 22 29 52 74 87
23 22 22 22 23 23 23 23 26 31 52 62 93 97 73 74 65 54 66 98 100 97 95 96 100 76 37 25 27 31 32 32 30 30 35 40 31 20 21 27 42 60 87
26 26 27 25 21 17 15 16 19 28 51 96 95 85 74 68 54 50 72 96 100 100 100 100 100 90 64 37 28 30 32 37 39 39 41 47 48 25 20 24 38 55 66
30 27 21 16 12 9 8 8 8 11 20 43 97 89 90 83 56 42 58 96 100 100 100 100 100 99 96 93 61 40 35 36 40 42 46 50 54 44 20 21 32 53 64
26 17 11 9 8 7 7 9 11 11 12 39 45 58 100 96 68 54 57 91 98 100 99 100 98 100 99 99 99 97 89 61 50 45 47 50 56 59 29 19 26 48 59
13 10 8 7 7 8 9 10 12 12 13 12 21 76 100 98 79 74 79 90 95 98 100 99 99 99 100 99 100 99 96 93 99 75 52 50 52 62 56 21 21 36 52
8 7 8 9 10 9 8 10 12 17 19 20 97 100 100 98 89 90 74 82 83 87 97 100 99 99 100 97 99 98 97 96 98 99 95 74 58 56 65 46 19 24 38
8 10 11 10 9 9 11 13 16 24 32 93 97 100 100 100 100 98 87 76 73 82 92 97 100 97 100 100 100 99 99 100 100 100 100 100 99 70 61 67 33 19 23
12 13 11 10 11 13 15 18 19 23 49 100 100 100 100 100 100 100 100 96 93 83 85 96 92 99 100 100 100 98 94 96 100 100 100 100 100 100 73 68 65 27 19
14 11 12 16 18 20 24 28 34 36 40 73 100 100 100 100 100 100 100 97 93 80 82 93 100 99 98 99 99 98 57 51 60 94 100 100 100 100 100 77 75 59 27

GFSGL_700_rhum_033.txt.gz
RH
36 46 51 68 80 90 94 99 100 100 100 100 100 100 96 97 99 98 93 71 73 80 73 65 42 18 19 28 47 49 47 48 43 34 23 13 11 14 17 22 20 14 13
69 75 80 81 90 99 100 100 100 100 100 98 98 99 100 100 98 95 82 81 78 75 63 40 18 18 25 36 48 50 50 40 24 14 11 13 19 24 18 16 19 20 22
77 83 83 84 97 100 100 100 99 95 98 100 100 100 99 97 95 90 87 74 74 64 33 20 21 27 32 40 50 56 44 23 16 14 17 24 18 20 22 24 24 26 47
76 80 86 84 100 100 100 100 100 100 100 100 100 99 99 95 92 92 78 65 47 32 23 20 23 29 36 49 61 56 29 18 17 23 23 18 21 23 24 24 21 44 60
82 92 82 97 89 96 96 95 99 99 99 98 98 98 95 94 95 90 53 41 36 22 19 22 26 32 43 59 63 39 24 17 24 21 19 20 20 21 23 23 35 56 55
90 82 78 98 100 100 100 98 99 100 99 100 99 95 96 96 94 66 48 34 19 19 20 25 31 38 50 64 53 34 21 22 21 17 18 18 18 21 22 29 55 56 53
82 98 98 99 99 99 99 99 99 99 99 96 94 96 96 93 73 42 17 16 18 19 21 28 34 42 56 57 43 32 20 25 17 16 15 18 19 21 25 34 62 61 70
68 76 89 100 100 100 100 100 98 97 96 94 97 96 92 49 28 16 15 16 17 20 24 30 37 47 60 51 47 27 26 20 18 16 16 17 18 20 26 43 61 64 70
88 91 100 100 99 99 98 98 98 97 96 98 96 60 33 18 16 16 16 16 17 20 26 33 43 55 66 53 48 23 26 19 16 15 15 15 16 18 26 40 62 66 68
97 99 99 99 99 98 99 97 96 96 97 72 36 29 19 16 17 17 18 20 20 26 32 40 50 58 77 60 51 24 27 18 15 14 15 14 15 16 23 39 62 64 75
99 100 100 99 99 98 97 97 95 80 54 34 24 20 19 18 19 20 21 24 28 32 40 50 58 63 90 89 61 27 27 18 16 13 13 14 14 16 18 30 69 68 79
99 98 98 98 99 97 92 89 79 49 28 21 19 20 22 23 23 23 22 24 35 41 49 64 68 76 92 98 79 36 28 21 16 14 15 15 15 16 16 22 61 72 79
90 79 82 82 79 81 75 51 29 20 18 19 22 23 24 27 28 28 27 30 38 46 53 85 93 99 97 96 98 53 30 26 19 17 18 19 17 16 16 18 36 74 72
68 69 68 59 45 31 22 18 18 20 23 24 24 26 26 26 29 35 34 36 43 57 63 78 87 100 100 97 100 64 30 31 22 21 23 22 21 17 18 19 24 49 79
50 36 26 22 21 21 22 22 23 23 24 25 26 30 32 28 32 40 42 43 49 60 84 78 87 100 100 100 100 64 31 34 25 23 25 24 26 20 18 19 23 39 70
26 25 24 24 23 23 22 21 24 24 25 26 27 34 40 51 65 77 73 53 45 57 83 89 94 100 100 100 100 60 29 35 30 24 25 26 29 29 19 19 22 36 50
26 25 23 22 22 22 24 25 24 22 17 15 16 28 70 54 99 98 81 62 49 56 78 100 100 100 100 100 98 49 28 37 35 29 27 28 32 38 24 20 21 32 52
26 25 26 27 29 29 27 20 14 11 9 8 8 9 24 49 100 100 82 70 45 50 74 94 100 99 99 100 98 63 30 34 35 35 34 34 37 45 39 20 21 28 47
30 32 33 34 31 20 13 10 8 7 6 6 6 7 9 29 80 98 92 86 56 44 70 95 96 100 99 100 99 97 52 31 35 35 37 40 42 47 51 27 21 26 44
37 38 34 22 13 10 8 6 6 7 8 8 8 10 11 14 45 90 92 100 69 53 64 95 100 98 99 99 99 99 98 64 38 38 40 40 42 46 55 46 22 25 44
38 27 15 10 8 6 6 8 8 8 8 8 8 12 18 21 20 65 100 100 88 73 94 99 100 100 100 99 99 99 99 100 96 85 58 53 47 47 54 59 30 21 37
18 10 8 6 6 8 9 9 8 8 10 11 12 16 20 78 100 100 100 98 87 78 88 90 98 100 100 100 99 100 99 100 99 95 98 89 64 51 51 61 55 21 26
9 6 6 7 10 11 10 9 10 13 15 17 18 24 60 100 91 100 100 100 100 91 80 75 96 97 100 100 100 99 99 100 100 98 97 99 95 75 62 58 65 39 21
6 7 8 11 13 11 10 13 16 20 22 25 28 29 80 100 100 100 100 100 100 100 94 79 79 85 97 100 100 98 100 100 100 100 100 100 98 98 96 74 64 66 26
8 10 13 15 12 10 15 20 24 29 35 40 44 45 42 77 100 100 100 100 100 100 100 97 88 80 83 98 100 100 99 94 99 99 100 100 100 99 98 99 76 72 61
12 15 17 13 12 19 24 26 34 42 48 54 58 59 60 58 56 65 90 99 99 100 100 100 97 82 80 96 100 99 100 100 100 100 90 98 100 100 99 100 97 79 76

GFSGL_700_rhum_036.txt.gz
RH
36 39 48 52 62 77 83 85 87 95 97 99 99 99 99 99 98 97 99 99 83 77 72 69 69 48 27 17 15 20 25 35 38 41 39 26 17 14 17 21 18 15 17
65 68 69 74 86 84 93 98 100 100 100 99 99 99 99 99 99 100 98 87 86 74 71 62 40 25 13 13 17 22 33 43 49 42 33 21 15 22 18 15 18 20 22
59 67 79 86 90 97 97 93 97 86 100 99 82 99 98 99 89 99 91 87 82 75 51 40 21 12 13 17 22 27 36 50 50 38 29 17 20 16 16 18 20 22 24
62 72 86 92 96 100 98 100 100 100 96 84 97 99 99 92 97 94 88 89 81 64 42 18 12 13 17 21 26 34 45 56 45 35 21 20 16 14 14 15 16 22 24
78 86 82 90 100 100 99 94 93 99 96 99 98 94 97 96 95 93 94 90 78 38 18 13 15 17 20 25 31 40 53 51 42 29 20 16 13 12 12 15 18 21 30
77 86 71 83 96 90 87 98 99 82 87 100 84 98 96 95 94 97 97 66 28 14 13 15 17 20 26 30 36 44 53 49 40 21 20 12 10 10 11 14 19 23 44
41 45 48 69 82 94 96 97 93 98 98 94 98 96 95 94 97 94 41 18 14 14 15 17 20 24 30 37 40 51 55 53 29 21 16 11 9 9 9 12 17 23 59
53 63 74 88 97 99 97 98 98 99 98 96 96 95 96 97 77 29 16 15 16 17 18 20 24 28 36 42 47 59 60 54 24 23 15 11 10 10 10 10 13 17 52
66 82 95 96 98 100 99 99 99 98 97 96 96 97 89 40 25 18 18 19 19 19 20 23 27 33 47 51 54 71 76 59 28 25 16 12 11 12 13 12 13 16 29
77 92 97 97 97 88 100 100 98 96 97 96 90 61 36 22 20 22 22 23 23 23 23 25 31 38 54 59 65 84 90 77 36 29 18 14 13 14 15 15 14 14 23
84 93 92 100 99 98 98 97 95 93 79 59 35 25 19 19 21 24 26 26 27 26 26 31 39 51 61 80 79 88 99 97 52 31 22 17 16 17 16 16 17 17 20
100 100 97 95 84 71 73 70 59 38 22 19 18 18 21 24 25 26 28 31 32 33 32 35 46 60 100 100 98 98 100 99 89 34 29 19 18 20 18 17 18 18 25
96 88 78 65 65 58 38 24 20 20 20 20 21 21 21 24 26 30 33 37 42 45 46 46 47 61 72 100 100 100 98 96 96 39 34 22 21 23 23 20 18 19 28
71 67 62 43 27 24 23 22 21 21 21 21 21 22 23 23 24 32 38 43 52 74 74 66 50 51 78 90 98 98 100 98 95 52 36 26 25 26 28 26 18 18 21
55 39 30 27 25 23 22 21 21 23 25 27 27 25 22 17 14 19 30 41 59 98 99 68 48 49 87 97 97 100 100 97 93 59 35 31 26 27 30 33 22 18 20
32 29 27 24 24 24 24 25 30 31 30 25 17 13 10 9 8 8 11 40 95 100 96 51 46 50 76 100 100 100 100 99 98 48 34 36 28 27 30 40 31 18 19
30 26 25 27 28 30 33 32 28 24 16 10 8 7 6 7 8 9 10 18 91 100 97 57 43 47 64 100 100 100 100 100 97 46 33 39 33 30 34 43 42 19 20
29 31 33 36 37 36 31 22 13 8 7 7 6 5 6 6 6 8 10 18 89 100 93 76 56 47 75 84 99 100 100 100 98 58 34 39 36 35 40 46 49 22 20
36 40 41 39 33 22 11 8 7 7 6 6 6 6 6 6 7 8 14 17 94 87 100 96 66 51 62 88 96 100 100 100 100 91 38 37 36 37 43 46 52 33 19
46 42 36 26 12 9 8 8 8 7 7 8 7 7 6 7 8 9 21 30 55 98 96 100 87 66 81 94 99 98 98 100 100 99 60 40 39 42 46 46 53 49 19
40 31 15 9 9 10 10 8 8 9 9 8 9 12 14 14 15 26 70 100 90 100 98 98 89 85 92 97 100 100 100 100 100 100 98 78 75 58 55 49 50 58 22
24 11 9 9 10 9 9 9 10 10 8 10 13 17 21 23 24 40 100 100 100 100 100 100 98 100 97 98 100 99 100 97 100 100 99 99 88 80 82 54 52 60 44
11 9 9 9 9 9 10 12 10 8 12 18 19 22 28 35 37 39 99 100 100 100 100 100 100 100 78 97 95 100 100 100 100 100 100 100 93 94 98 77 64 59 63
9 9 9 10 10 10 13 12 8 13 21 23 30 40 46 48 50 50 44 73 100 100 100 100 100 100 94 85 80 94 100 100 97 98 100 100 100 99 98 99 99 75 65
8 9 10 10 11 14 14 9 13 25 27 33 43 53 59 58 57 56 56 52 44 42 84 100 100 100 100 95 76 81 99 100 100 100 99 100 100 100 100 100 98 98 81
9 10 10 12 15 17 12 10 24 30 30 36 37 39 54 63 65 64 64 65 66 75 85 80 99 100 100 100 84 75 89 100 100 100 100 100 100 100 100 100 100 97 98

GFSGL_700_rhum_039.txt.gz
RH
63 49 42 47 57 61 76 96 99 98 98 94 88 64 100 100 89 74 89 100 97 94 82 74 72 64 43 31 12 11 12 14 16 23 29 43 41 36 26 18 18 12 11
67 66 68 69 77 86 97 99 98 97 88 89 80 78 87 99 88 86 93 98 92 91 84 81 76 55 38 13 11 12 14 19 23 26 44 42 40 33 20 17 11 10 11
72 70 66 65 77 89 99 100 87 96 87 79 75 96 99 90 93 100 98 94 94 82 90 91 72 40 13 12 12 14 19 23 27 33 41 42 40 24 18 10 9 10 12
68 66 67 70 80 84 97 95 90 97 99 98 99 100 99 96 99 99 96 96 94 91 96 90 36 15 14 14 15 18 24 28 33 40 46 46 33 20 12 8 8 11 10
47 47 55 75 93 86 83 90 98 99 97 98 95 91 98 98 98 94 96 96 96 98 82 24 14 15 15 16 19 23 28 33 37 47 51 49 23 18 10 8 8 8 10
44 42 56 55 59 61 90 92 100 100 98 99 100 100 98 96 96 96 96 96 100 62 16 15 16 16 18 20 22 27 34 39 44 54 56 44 22 16 9 8 10 10 10
36 36 40 43 49 67 94 100 100 94 98 99 98 98 98 98 96 96 98 79 28 18 16 17 18 19 22 24 26 31 39 48 53 65 63 41 23 15 10 10 13 15 12
40 49 54 60 70 91 94 98 90 98 90 99 95 98 95 92 95 84 44 26 17 18 20 21 22 23 24 27 31 38 49 57 66 72 74 53 26 17 12 12 15 17 15
55 56 59 65 76 82 76 85 88 91 93 94 95 95 86 55 36 22 19 18 20 23 26 26 26 28 31 36 38 46 58 65 80 78 85 70 30 21 14 14 16 16 16
47 51 61 70 80 77 78 91 95 92 79 72 64 37 20 19 18 19 21 23 25 27 28 30 34 36 38 42 49 60 68 89 92 88 90 86 36 26 16 16 16 16 16
63 74 79 81 89 83 78 70 64 62 46 27 21 19 19 21 22 23 24 25 27 28 28 31 40 48 53 53 61 65 100 100 95 93 92 92 55 31 20 19 22 20 17
79 90 84 74 68 60 57 48 32 24 22 20 18 18 19 21 23 24 26 28 31 29 26 31 42 55 67 62 58 67 86 100 99 95 89 93 77 35 24 22 24 25 20
86 66 60 58 52 44 32 27 24 20 19 19 20 22 26 28 29 28 25 22 20 22 20 29 47 70 89 84 60 61 88 99 100 100 90 97 94 39 29 23 25 29 25
66 61 55 44 35 29 27 21 20 22 24 27 30 30 28 24 18 13 10 9 9 11 38 76 76 92 98 93 48 50 94 100 100 100 100 97 95 46 33 25 26 31 34
60 50 39 32 30 23 22 25 29 33 34 33 28 19 13 9 7 7 6 6 6 7 15 36 80 100 99 63 47 58 100 96 99 99 99 99 97 43 36 27 28 32 41
44 35 34 27 24 27 31 36 36 33 26 16 9 8 8 8 7 6 6 6 6 7 10 38 80 97 97 67 48 52 84 99 100 99 97 99 99 41 38 30 30 37 46
37 33 26 29 33 38 37 32 26 18 10 9 10 10 10 9 7 7 6 6 6 8 10 22 100 100 100 84 58 53 62 91 96 100 100 98 98 40 40 34 34 41 51
30 30 35 39 40 34 28 20 11 9 9 10 10 10 8 7 7 7 7 8 8 12 25 56 98 100 99 91 58 63 69 92 98 96 93 100 97 41 41 37 38 43 54
36 41 44 40 33 25 12 10 10 10 10 9 8 8 7 6 6 8 10 13 14 24 42 28 97 100 100 99 64 58 73 94 98 99 92 100 99 46 42 40 41 46 55
46 47 39 33 19 11 10 10 11 11 9 7 8 8 6 6 7 8 11 14 22 86 100 64 97 100 100 100 97 79 90 95 98 92 95 100 100 60 43 47 48 49 54
48 40 32 16 11 10 11 12 11 9 7 8 9 7 8 10 11 13 17 22 24 72 100 100 100 100 100 100 98 91 99 99 99 100 99 100 100 87 64 61 57 53 53
43 35 16 11 11 12 12 12 9 8 9 10 8 9 15 17 20 27 34 38 38 41 99 100 100 100 100 100 100 100 100 100 99 98 100 100 100 99 97 69 72 56 54
42 21 11 10 11 12 12 9 8 10 12 9 9 14 20 22 30 43 46 46 46 46 46 82 100 100 100 100 100 92 88 95 100 98 100 100 99 100 98 89 89 67 60
38 18 10 10 12 12 10 9 11 14 12 9 13 23 24 27 30 40 52 53 52 50 46 40 38 65 99 100 100 100 81 86 96 94 100 99 95 100 99 99 100 97 91
36 14 10 11 12 11 10 11 15 16 11 11 23 28 30 31 33 34 39 56 60 62 60 54 49 55 50 89 100 100 100 92 87 100 100 100 94 99 100 100 100 98 98
27 11 11 12 11 10 11 14 18 15 11 22 31 31 32 32 31 35 40 44 56 58 73 70 71 87 84 94 99 100 100 100 80 97 100 100 100 98 97 100 100 100 100

GFSGL_700_rhum_045.txt.gz
RH
60 73 79 84 87 71 56 57 48 60 72 78 83 90 93 100 96 100 98 98 88 85 91 100 96 95 94 95 89 91 85 86 76 50 97 96 96 96 96 66 19 20 26
56 62 72 80 82 42 53 60 66 72 76 85 88 92 99 99 98 100 91 97 94 98 99 92 90 93 93 91 93 93 85 63 62 42 55 94 96 96 95 86 28 25 28
62 58 54 57 45 62 70 73 74 72 75 81 91 96 94 96 95 92 100 99 99 97 96 84 88 92 91 92 99 90 64 81 91 94 72 94 98 96 99 94 75 43 36
45 58 63 72 71 65 56 56 60 74 84 92 95 95 100 95 100 99 96 99 94 77 84 88 87 88 84 80 43 39 59 58 96 94 95 96 99 99 98 94 89 99 81
74 72 56 49 49 51 56 77 86 92 96 98 99 99 96 98 97 93 87 86 84 80 86 88 80 57 33 28 20 21 26 36 62 98 97 100 97 100 100 100 99 89 57
60 59 53 53 58 77 78 49 43 42 46 50 77 86 93 98 100 96 88 83 78 74 63 32 21 20 18 18 18 21 25 28 30 44 57 80 100 100 100 100 100 87 70
53 59 63 53 40 38 35 37 48 54 58 63 77 94 91 91 94 86 70 52 41 24 18 17 18 19 21 22 24 25 25 30 34 35 42 45 69 86 98 84 83 87 79
38 31 28 26 29 37 41 41 38 41 48 55 61 60 66 79 60 38 29 22 18 16 16 17 19 22 24 26 28 34 46 58 65 66 61 50 59 99 98 90 81 80 77
26 22 24 28 30 30 31 35 42 49 52 50 42 40 36 33 27 23 18 17 19 22 26 27 28 29 28 28 30 32 44 65 76 99 73 68 74 78 100 100 92 93 73
21 25 27 29 32 36 42 48 50 43 38 34 32 30 29 22 19 19 23 26 26 24 23 20 13 9 8 8 9 19 29 41 67 82 100 100 96 96 100 100 98 90 81
29 31 35 38 40 46 52 48 41 37 34 32 32 25 21 22 26 27 28 25 20 14 9 7 8 8 9 9 8 28 88 85 58 65 75 100 95 84 77 80 100 100 90
39 43 45 46 53 57 49 43 40 37 35 32 23 24 27 29 28 23 18 11 8 7 7 7 7 6 6 7 8 8 44 100 97 68 76 85 99 89 85 100 95 94 88
50 53 52 54 62 55 49 44 39 37 28 24 28 29 29 24 18 14 8 8 7 7 7 6 4 4 5 6 6 6 8 83 98 100 99 99 100 92 76 99 100 99 100
60 63 65 68 63 54 48 42 40 29 28 31 32 27 22 16 10 8 9 8 7 7 6 4 4 6 5 5 5 33 79 38 42 96 98 97 95 79 99 100 100 100 96
72 81 82 71 60 51 43 41 30 31 34 33 27 21 15 10 9 10 10 8 8 6 4 4 5 6 5 13 24 58 88 90 92 98 96 64 77 94 93 99 100 100 99
91 96 82 66 53 46 45 33 34 37 34 28 21 14 11 11 10 11 10 9 7 4 4 5 6 6 6 8 60 89 99 74 99 98 87 72 86 89 99 99 100 100 100
100 94 70 52 51 48 35 37 40 36 29 24 18 16 14 13 12 12 11 9 5 4 6 6 6 6 7 10 19 86 98 99 99 91 72 73 83 83 100 100 100 100 99
98 81 58 68 59 40 41 44 38 31 26 24 23 20 18 13 13 13 12 8 5 6 6 7 7 9 11 13 45 49 68 88 100 79 98 98 89 86 99 100 98 100 100
68 78 94 85 54 45 48 41 35 32 29 26 23 21 20 15 14 13 12 8 5 6 8 9 11 16 20 21 53 80 81 100 99 100 99 98 97 91 98 98 100 100 100
95 95 95 87 73 74 49 41 39 37 36 34 28 25 18 15 14 13 10 6 6 8 10 14 17 24 29 29 31 95 88 100 100 96 100 99 98 96 100 100 100 100 100
96 96 95 95 93 66 48 48 47 47 47 41 32 25 17 14 12 11 8 7 8 9 12 18 22 27 36 35 33 48 99 100 100 100 99 87 98 95 100 100 100 100 100
94 95 95 93 70 57 58 59 60 60 55 44 31 20 14 12 10 8 8 9 10 14 18 20 22 25 36 42 40 36 54 92 100 100 100 100 94 89 100 100 100 100 100
94 95 92 83 72 70 73 77 76 70 58 43 25 15 12 10 9 8 10 11 14 20 21 21 22 25 33 47 51 48 41 33 66 99 100 100 99 86 94 100 100 100 100
94 96 96 92 89 94 94 90 82 74 57 33 17 12 11 10 10 10 12 16 21 22 27 40 38 28 31 45 49 54 50 38 29 56 100 100 100 96 96 100 100 100 100
97 98 98 98 97 96 96 94 89 75 43 20 14 12 12 12 13 13 17 23 24 25 43 50 50 48 32 38 43 50 57 52 54 46 95 99 100 99 100 100 100 100 100
96 96 97 96 96 96 96 95 89 59 26 16 15 15 15 16 16 18 26 29 28 38 46 52 58 61 59 39 40 47 70 73 75 68 91 100 100 100 100 100 100 100 100

GFSGL_700_rhum_048.txt.gz
RH
76 57 72 84 85 90 94 89 82 72 69 56 67 69 74 82 90 97 100 99 97 99 97 99 99 96 97 92 84 79 85 83 84 75 78 53 34 37 63 90 91 73 36
66 73 75 79 78 73 60 81 67 64 64 68 68 68 74 82 92 99 100 98 100 99 97 99 98 91 82 76 79 84 81 92 95 56 28 19 22 34 52 67 70 70 52
72 63 55 56 59 46 65 64 63 69 69 60 67 78 85 89 88 99 100 99 93 97 98 98 96 80 76 77 81 71 58 54 58 77 34 31 31 63 71 75 64 62 80
75 53 38 39 58 62 68 71 65 60 58 67 84 94 99 94 74 100 81 100 100 100 92 91 86 81 61 48 33 21 22 26 77 77 92 58 54 62 86 98 95 89 88
53 42 40 55 55 58 52 54 57 61 72 89 82 51 47 81 99 98 92 100 100 99 85 76 60 35 22 18 16 16 19 21 24 51 39 42 44 67 82 98 100 98 97
47 61 60 52 56 60 55 61 73 74 44 38 42 56 65 60 79 95 100 100 98 82 50 29 20 17 16 18 21 22 23 24 26 27 29 45 54 67 83 100 98 95 95
63 63 57 58 62 64 67 43 32 31 37 42 43 47 57 62 80 74 81 82 55 30 22 18 18 22 25 26 26 26 25 25 29 32 49 55 67 86 98 98 98 94 94
52 55 56 58 48 33 27 27 31 31 32 37 46 56 62 60 50 49 38 30 24 19 20 23 24 22 19 14 9 8 7 8 9 20 55 60 74 89 100 100 96 83 94
52 42 33 28 24 24 26 27 29 34 39 46 51 49 41 35 33 29 26 20 21 23 24 20 16 11 8 7 7 6 6 6 8 10 44 59 58 81 97 94 99 92 72
33 30 25 22 24 27 30 34 37 42 49 52 43 38 34 32 31 23 22 23 23 19 16 12 10 9 8 7 6 6 5 4 6 19 37 92 67 76 92 100 100 98 94
30 24 24 28 31 37 38 40 45 51 48 43 39 36 34 31 26 25 24 21 18 15 12 12 12 8 6 6 5 3 4 5 6 6 8 94 96 80 50 77 100 100 98
26 27 31 36 42 43 45 48 54 52 47 42 38 36 28 28 28 24 21 17 14 12 14 14 11 7 6 5 3 4 5 5 5 5 6 8 61 100 83 84 91 93 75
28 32 38 44 51 56 56 60 58 53 47 42 40 29 30 31 26 22 18 15 15 14 15 13 9 8 6 4 3 5 5 6 6 35 75 57 52 92 100 100 98 88 100
35 41 47 56 65 67 69 67 60 51 44 41 31 33 33 28 24 18 17 17 16 16 17 14 10 8 6 4 4 5 5 14 37 80 84 61 61 55 79 99 95 85 100
45 53 63 73 76 81 81 66 54 46 44 36 36 36 31 25 21 20 20 19 19 19 18 15 12 10 7 4 5 5 6 20 90 92 84 94 100 97 78 91 86 98 96
61 72 85 91 92 94 79 59 47 45 36 38 39 33 27 24 24 22 22 23 22 20 17 15 13 9 5 5 5 5 6 9 93 90 100 99 97 93 76 86 91 92 98
79 98 100 100 100 94 62 45 58 54 48 42 36 30 27 26 27 28 29 27 24 20 16 14 13 7 5 6 6 7 8 12 38 99 99 100 90 65 81 97 96 99 99
100 100 100 98 94 73 80 94 93 83 67 62 43 37 34 35 37 36 35 28 22 16 14 12 9 6 6 7 9 12 13 16 53 55 84 100 100 96 100 96 100 99 100
100 100 98 96 92 95 95 94 94 94 93 91 76 49 43 47 47 42 37 31 23 17 14 10 7 7 8 12 15 18 20 21 73 94 100 100 100 100 99 98 97 100 95
98 96 95 96 95 95 95 95 95 95 93 71 55 54 58 58 50 44 35 26 18 14 11 8 7 9 13 16 17 20 26 26 52 95 100 100 100 86 99 99 96 100 100
95 95 95 95 95 95 95 95 94 89 77 70 71 75 73 65 55 45 32 20 14 11 9 8 9 12 16 18 20 21 33 36 31 66 98 100 100 100 76 84 90 100 100
95 96 96 95 95 95 95 93 94 94 92 95 96 95 88 77 60 41 25 15 11 10 9 10 13 17 20 28 27 24 34 44 43 40 76 94 100 100 100 99 95 98 100
96 96 95 96 95 97 97 95 96 95 97 97 97 96 92 80 56 31 17 12 11 11 13 16 19 21 30 44 39 28 33 46 50 50 36 55 99 100 100 100 94 97 100
96 95 96 96 94 96 94 94 96 96 97 98 97 96 94 73 38 19 14 13 14 15 19 24 25 30 40 46 50 46 34 44 47 53 46 33 50 100 100 100 100 100 100
95 96 97 97 96 96 98 98 99 99 99 99 98 96 74 39 21 18 17 18 18 21 30 29 28 38 52 58 60 61 46 41 43 58 58 48 39 70 100 100 100 100 100
95 95 96 96 96 96 96 97 99 100 100 95 81 54 31 23 22 22 23 23 24 34 35 30 39 60 62 64 67 69 63 46 48 76 74 64 60 51 100 100 100 100 100

GFSGL_700_rhum_051.txt.gz
RH
70 70 67 73 70 80 87 94 98 95 96 84 80 70 66 68 64 74 88 99 99 76 100 96 99 100 100 98 99 96 86 92 84 55 37 30 28 27 31 30 33 50 54
52 67 79 76 97 62 96 95 87 72 83 68 67 70 69 64 72 90 93 92 82 100 97 98 100 96 93 98 96 93 85 73 40 17 16 18 30 48 54 48 53 51 67
61 82 84 93 86 63 57 57 54 58 59 64 67 60 63 78 95 99 100 96 73 100 100 99 99 93 93 92 87 57 27 19 17 16 17 18 27 48 55 100 93 76 100
73 72 62 63 59 38 45 52 52 52 57 56 58 63 76 96 94 58 83 97 85 100 97 95 99 97 92 67 27 18 17 18 20 21 22 23 25 27 49 56 88 98 95
57 29 29 34 36 40 43 46 51 54 57 62 68 82 78 51 46 78 99 97 100 79 92 100 98 80 31 19 17 20 22 21 21 20 19 24 24 29 40 67 74 94 98
25 33 33 36 44 53 50 56 58 61 69 79 58 39 39 51 68 89 81 69 85 94 93 79 33 22 18 20 21 19 17 12 9 8 8 10 10 18 52 72 100 98 95
31 31 34 49 64 61 59 63 66 68 43 32 33 37 35 40 46 55 57 64 65 58 33 25 19 20 21 17 14 11 10 9 7 7 7 7 9 11 42 63 93 99 98
39 44 55 67 68 62 60 53 35 27 25 28 28 30 37 46 52 53 48 38 33 28 22 22 21 19 15 12 12 13 12 8 6 6 6 5 5 7 17 65 70 93 91
47 53 58 60 61 48 35 27 22 25 27 31 35 39 47 52 50 39 34 31 28 24 24 20 17 14 12 13 14 14 11 7 6 5 4 3 4 5 20 74 44 67 83
47 57 56 42 35 29 25 25 28 31 34 38 42 48 50 44 39 36 34 28 27 25 20 17 14 13 15 16 15 12 8 6 5 5 3 2 4 5 6 29 100 84 77
52 41 35 32 28 25 26 29 36 40 42 45 47 50 48 43 38 37 30 30 28 22 18 15 16 17 17 17 15 10 8 7 6 4 3 3 5 5 10 7 86 96 95
37 35 34 31 26 27 33 40 46 50 53 57 57 53 48 44 40 33 31 30 24 20 17 18 19 19 19 18 16 11 9 6 4 3 4 5 7 30 40 20 27 82 98
37 37 35 31 30 34 41 45 48 55 65 66 60 55 49 43 35 33 33 27 22 20 21 21 21 22 22 20 16 13 11 7 4 4 5 8 42 58 54 52 81 82 94
39 38 37 34 35 41 46 54 66 75 77 70 57 47 42 34 36 38 30 24 23 23 23 23 26 26 24 22 18 14 12 7 4 4 5 13 79 81 92 80 64 80 98
41 41 40 40 43 50 62 76 81 86 84 66 48 40 39 61 72 56 30 25 26 27 28 30 30 28 27 24 18 15 13 6 4 5 7 14 87 100 100 99 95 87 86
44 44 48 54 64 78 92 99 98 97 94 82 68 77 94 92 81 44 30 35 36 34 36 36 34 33 29 24 18 15 12 5 5 6 8 20 99 97 98 89 82 78 86
48 54 64 77 92 100 100 98 97 91 81 86 95 96 91 83 87 76 75 50 41 44 44 43 40 34 27 20 15 12 8 5 6 10 11 17 81 100 98 95 100 96 92
57 66 88 100 99 99 97 96 96 89 94 96 95 95 96 96 96 92 73 55 54 54 52 46 38 29 20 14 11 8 6 6 10 14 17 49 79 91 98 100 100 100 97
86 98 98 98 97 97 96 94 95 95 95 95 95 94 95 92 88 77 71 72 76 73 60 49 32 19 13 11 8 7 8 10 13 17 21 56 100 100 100 100 100 100 97
97 97 97 96 95 96 96 96 96 96 96 96 96 94 93 94 92 95 95 95 92 79 62 44 26 15 11 9 8 10 11 15 18 20 28 31 99 100 100 100 93 84 82
96 96 96 96 96 96 96 96 95 95 96 95 95 96 96 97 98 97 97 97 91 79 56 31 17 12 11 10 12 14 18 26 28 24 33 32 45 99 100 100 90 95 87
96 96 96 96 96 96 96 96 96 96 95 96 97 97 97 97 96 96 97 96 91 70 31 18 14 13 12 13 17 20 28 38 36 27 37 42 39 61 99 100 100 100 92
96 96 96 96 96 96 96 96 96 95 96 97 97 98 98 98 99 99 97 93 75 34 21 18 17 15 19 24 25 28 36 42 45 36 37 47 48 40 81 100 100 100 99
96 96 96 96 96 95 96 96 97 97 97 97 98 99 100 100 100 98 88 64 31 23 23 22 20 20 26 28 30 44 53 54 55 52 37 44 49 46 35 90 96 98 100
96 96 96 95 95 96 97 97 98 97 97 98 100 100 99 93 78 56 35 28 26 27 27 26 28 34 34 32 49 60 60 63 65 65 45 41 49 55 43 41 97 100 100
96 96 97 96 95 94 92 91 90 87 84 78 67 56 47 39 36 33 32 31 33 32 33 36 42 42 35 52 67 67 72 75 76 72 52 43 54 67 56 42 57 100 100